Location: Apollinopolis Magna
(24.9792°N, 32.8772°E)
Time: 04:05:11
(UTC+00:00)

Cosmos 2322 - Pass Details

Date: 02 March 2021
Orbit: 841 x 853 km, 71.0° (Epoch: 12 April)

Event Time Altitude Azimuth Distance (km) Brightness Sun altitude
Rises 16:25:38 0° 172° (S) 3,403 6.8 -8.6°
Reaches altitude 10° 16:28:22 10° 162° (SSE) 2,471 6.0 -9.2°
Maximum altitude 16:33:13 30° 103° (ESE) 1,487 4.5 -10.3°
Drops below altitude 10° 16:38:06 10° 44° (NE) 2,481 5.7 -11.4°
Sets 16:40:49 0° 33° (NNE) 3,419 6.5 -12.0°
